STARLINK-11411, 62018

Orbit data source: Space-Track

STARLINK-11411, 62018 is a payload satellite owned by SpaceX/Seattle (US) in LEO that was launched on Mon, 18 Nov 2024 UTC via an FALCON 9 launch vehicle from the Air Force Western Test Range (AFWTR). Payload-class satellites include a variety of spacecraft equipped with specific instruments for various scientific and technological missions. These include communications satellites like Starlink; space stations such as the ISS; scientific satellites like the Hubble; Earth observation satellites from companies like Planet Labs, Umbra, and HawkEye 360; GPS; miniature CubeSats for education and research; and military/defense satellites.

Loading next visibility...
Identifier
62018, 2024-213L
Orbit
LEO
Country
Flag of USUS
Related business
Manufacturer
SpaceX/Seattle
Mission
Operational Commercial Communications
Bus & Motor
STARLINK V2M, Unknown motor
Mass
730 kg wet, ~700 kg dry
Launch date (UTC)
2024-11-18 (9 months ago)
Launch vehicle
FALCON 9
Launch site
Air Force Western Test Range (AFWTR)
Object type
Payload
Rocket body
Debris
Shape & HBR
Box + 2 Pan, 14.5 m
Radar Cross Section
36.964 m², Large (>1 m²)

Expand to show TLE details & history
Last TLE update: 10 hours ago

TLE from 10 hours ago
0 STARLINK-11411
1 62018U 24213L   25242.09881063  .00243734  00000-0  19514-2 0  9994
2 62018  53.1566 265.7380 0001303 105.2884 254.8278 15.69792662 44828
Epoch: 2025-08-30T02:22Z
TLE epoch observation values (Epoch: 2025-08-30T02:22:17.238Z)
Latitude
-0.00002°
Longitude
-108.37182°
Altitude
360.635 km
Speed
7.694 km/s
True Right ascension
17h 42m 57s
True Declination
0° 00' 00"
Sunlit
Object was in daylight at epoch
Visualization orbit readout
Latitude
Unknown
Longitude
Unknown
Altitude
Unknown
Speed
Unknown
Apparent Right ascension
Unknown
Apparent Declination
Unknown
Sunlit
N/A
Visualization observer readout
Local Sidereal Time
04:18:51
Azimuth
Unknown
Elevation
Unknown
Doppler factor
Unknown
Orbital elements
Apogee altitude
360.629 km
Perigee altitude
358.874 km
Semi-major axis
6,737.888 km
Eccentricity
0.00013
Inclination
53.1566°
RAAN
265.738°
Arg. of periapsis
105.2884°
True anomaly
254.81339°
Mean anomaly
254.8278°
Eccentric anomaly
254.82059°
Mean motion
3.92426 °/min
Orbital period
91.74 mins
BSTAR
0.0019514
Loading maneuver chart data...
Computing Atmospheric mass density...
Loading historical data...
Loading historical data...
Loading historical data...
Loading historical data...
Loading historical data...
Loading historical data...
Loading historical data...

Documentation

Showing up to 5 results
|